Weather in Gerasimovo

Russia / Oryol Oblast     52°47′58″N   35°06′32″E
temp.,
°C
wind,
m/s
gust,
m/s
humid.,
%
clouds,
%
prec.,
mm/h
press.,
hPa
HPBL,
m
26 october, tue
tue2600:00−1sw37745 0.0 1032120
03:00−1sw497793 0.0 1032171
06:00−1sw4107993 0.0 1031199
09:00+1sw51270100 0.0 1030312
12:00+5sw71153100 0.0 1029534
15:00+6sw61252100 0.0 1027638
18:00+4ssw5136198 0.0 1026329
21:00+3ssw61564100 0.0 1026372
27 october, wed
wed2700:00+3sw61567100 0.0 1025365
03:00+2ssw61471100 0.0 1024338
06:00+2ssw61577100 0.0 1022352
09:00+3sw71677100 0.0 1021495
12:00+7sw8126595 0.0 1020649
15:00+5wsw61182100 0.9 1019522
18:00+5wsw5118688 0.0 1020465
21:00+6wsw3883100 0.0 1020273
28 october, thu
thu2800:00+4sw41090100 0.0 1020247
03:00+5sw51194100 0.0 1018299
06:00+6sw61494100 0.6 1016414
09:00+7wsw61494100 1.3 1016591
12:00+7wsw61295100 0.1 1016536
15:00+8w61296100 0.5 1016570
18:00+9wnw61293100 0.1 1017724
21:00+10nw5128566 0.1 1018523
29 october, fri
fri2900:00+8nnw5108598 0.1 1021547
03:00+7nne588793 0.1 1024415
06:00+6nne3782100 0.1 1027383
09:00+7ene356799 0.1 1029877
12:00+8e33595 0.0 1030925
15:00+9ese22575 0.0 1031860
18:00+6ese34765 0.0 103246
21:00+4se348229 0.0 103369
30 october, sat
sat3000:00+3s3785100 0.0 1034119
03:00+2s378738 0.0 1034127
06:00+2s488710 0.0 1034152
09:00+3s498011 0.0 1034234
12:00+8ssw58625 0.0 1033445
15:00+10ssw595925 0.0 1032606
18:00+6s4127067 0.0 1032253
21:00+5ssw513665 0.0 1032272